Location: Unspecified
(0.0000°N, 0.0000°E)
Time: 09:14:14
(UTC+00:00)

Vanguard 3 - Pass Details

Date: 26 September 2023
Orbit: 507 x 3241 km, 33.3° (Epoch: 06 December)

Event Time Altitude Azimuth Distance (km) Brightness Sun altitude
Rises 13:27:28 0° 225° (SW) 6,902 12.1 66.0°
Reaches altitude 10° 13:32:09 10° 220° (SW) 6,052 12.0 64.8°
Maximum altitude 13:51:22 54° 147° (SSE) 3,553 11.0 60.0°
Drops below altitude 10° 14:06:51 10° 74° (ENE) 5,040 11.0 56.1°
Sets 14:10:17 0° 70° (ENE) 5,737 11.2 55.3°
